Overview Statistics Trail Chart Weather Telemetry Raw packets
 

This is the latest recevied weather packets stored in our database for station/object WE1C. If no packets are shown the sender has not sent any weather packets the latest 10 day(s).

<< 88 89 90 91 92 93 94 >>
Time Temp. Humidity Pressure Rain* Wind** Luminosity Snow
1787958613 21.67° C 86% 1044.5 hPa 0 mm - 11 W/m² -
1787958309 21.67° C 85% 1044.6 hPa 0 mm - 13 W/m² -
1787958004 22.22° C 84% 1044.5 hPa 0 mm - 15 W/m² -
1787957702 22.22° C 83% 1044.4 hPa 0 mm - 17 W/m² -
1787957398 22.22° C 83% 1044.5 hPa 0 mm - 19 W/m² -
1787957097 22.78° C 82% 1044.4 hPa 0 mm - 23 W/m² -
1787956797 22.78° C 81% 1044.4 hPa 0 mm - 26 W/m² -
1787956492 22.78° C 81% 1044.2 hPa 0 mm - 31 W/m² -
1787956187 23.33° C 80% 1044.4 hPa 0 mm - 33 W/m² -
1787955886 23.33° C 80% 1044.3 hPa 0 mm - 37 W/m² -
1787955582 23.33° C 79% 1044.4 hPa 0 mm - 40 W/m² -
1787955272 23.33° C 80% 1044.2 hPa 0 mm - 43 W/m² -
1787954972 23.89° C 81% 1044.3 hPa 0 mm - 45 W/m² -
1787954668 23.89° C 81% 1044.4 hPa 0 mm - 48 W/m² -
1787954362 24.44° C 81% 1044.3 hPa 0 mm - 49 W/m² -
1787954057 24.44° C 79% 1044.4 hPa 0 mm - 61 W/m² -
1787953755 24.44° C 78% 1044.3 hPa 0 mm - 82 W/m² -
1787953451 24.44° C 80% 1044.3 hPa 0 mm - 96 W/m² -
1787953148 24.44° C 79% 1044.3 hPa 0 mm - 68 W/m² -
1787952847 24.44° C 78% 1044.3 hPa 0 mm - 88 W/m² -
1787952542 24.44° C 79% 1044.3 hPa 0 mm - 117 W/m² -
1787952241 24.44° C 78% 1044.4 hPa 0 mm - 68 W/m² -
1787951938 25° C 75% 1044.4 hPa 0 mm - 80 W/m² -
1787951633 25° C 78% 1044.3 hPa 0 mm - 116 W/m² -
1787951329 25° C 77% 1044.1 hPa 0 mm - 91 W/m² -

* Rain latest hour (hover to see other rain measurements)
** Current wind speed in m/s (hover to see current wind gust speed)